カタログに戻る

FENGYUN 1C DEB

運用中SSO
NORAD 38492·DEBRIS·🇨🇳 China

打ち上げ May 10, 1999 から Taiyuan Satellite Launch Center

Loading…

次のパス (今後24時間)

TLE

古いSource: Space-Track

元期: Aug 28, 2026, 09:11 UTC

1 38492U 99025ESB 26240.38327796  .00005335  00000-0  31354-2 0  9994
2 38492  98.6138 300.2664 0229374 152.0000 209.3727 13.96131064596104

AllMySatでFENGYUN 1C DEBをリアルタイム追跡

Download on the App Store